Location: Andershausen
(51.8462°N, 9.8595°E)
Time: 03:19:30
(UTC+00:00)

RESURS DK-1 - Pass Details

Date: 18 November 2025
Orbit: 525 x 534 km, 69.9° (Epoch: 15 December)

Event Time Altitude Azimuth Distance (km) Brightness Sun altitude
Rises 16:53:27 0° 324° (NW) 2,696 6.1 -13.3°
Reaches altitude 10° 16:55:40 10° 320° (NW) 1,801 5.3 -13.6°
Maximum altitude 16:59:34 52° 244° (WSW) 670 3.1 -14.2°
Drops below altitude 10° 17:03:27 10° 167° (SSE) 1,786 4.9 -14.8°
Sets 17:05:39 0° 163° (SSE) 2,672 5.8 -15.1°
